Muncie, IN

11:52 AM EDT on July 21, 2017 (GMT -0400)
Delaware County-Johnson

Weather History for KMIE - February, 2012

Change the Weather History Date:

Saturday, February 11, 2012

  Actual Average Record
Temperature  
Mean Temperature 18 °F 28 °F  
Max Temperature 25 °F 37 °F 71 °F (1999)
Min Temperature 10 °F 21 °F -13 °F (2014)
Degree Days  
Heating Degree Days 47 36  
Month to date heating degree days 347 411  
Since 1 July heating degree days 3328 3804  
Cooling Degree Days 0 0  
Month to date cooling degree days 0 0  
Year to date cooling degree days 0 0  
Moisture  
Dew Point 8 °F    
Average Humidity 72    
Maximum Humidity 83    
Minimum Humidity 61    
Precipitation  
Precipitation T in 0.09 in 1.56 in (2009)
Month to date precipitation 0.41 0.90  
Year to date precipitation 2.78 3.13  
Sea Level Pressure  
Sea Level Pressure 30.20 in    
Wind  
Wind Speed 15 mph (NW)    
Max Wind Speed 26 mph    
Max Gust Speed 36 mph    
Visibility 9 miles    
Events Snow    
T = Trace of Precipitation, MM = Missing Value Source: NWS Daily Summary

Daily Weather History Graph

Daily Weather History Graph

Search for Another Location

Airport or City:

Trip Planner

Search our weather history database for the weather conditions in past years. The results will help you decide how hot, cold, wet, or windy it might be!

Date:

Astronomy

Feb. 11, 2012 Rise Set
Actual Time 7:40 AM EST 6:11 PM EST
Civil Twilight 7:12 AM EST 6:39 PM EST
Nautical Twilight 6:40 AM EST 7:11 PM EST
Astronomical Twilight 6:08 AM EST 7:43 PM EST
Moon 10:59 PM EST (2/11) 9:21 AM EST (2/11)
Length of Visible Light 11h 27m
Length of Day
10h 31m
Waning Gibbous, 82% of the Moon is Illuminated
Feb 11
Waning Gibbous
Feb 14
Last Quarter
Feb 21
New
Feb 29
First Quarter
Mar 8
Full

Hourly Weather History & Observations

Time (EST) Temp. Windchill Dew Point Humidity Pressure Visibility Wind Dir Wind Speed Gust Speed Precip Events Conditions
12:26 AM 24.8 °F 10.7 °F 17.6 °F 74% 29.94 in 9.0 mi NW 19.6 mph 31.1 mph 0.00 in   Overcast
12:36 AM 23.0 °F 6.6 °F 17.6 °F 80% 29.95 in 9.0 mi NW 25.3 mph 29.9 mph 0.00 in   Overcast
12:53 AM 21.9 °F 5.8 °F 16.0 °F 78% 29.98 in 10.0 mi NNW 23.0 mph 27.6 mph 0.00 in   Overcast
1:53 AM 19.0 °F 2.4 °F 12.0 °F 74% 30.01 in 10.0 mi NNW 21.9 mph 26.5 mph 0.00 in   Overcast
2:06 AM 19.4 °F 2.8 °F 12.2 °F 74% 30.00 in 10.0 mi NNW 21.9 mph - N/A   Overcast
2:53 AM 17.1 °F 2.0 °F 10.0 °F 74% 30.04 in 10.0 mi NNW 16.1 mph - N/A   Overcast
3:53 AM 15.1 °F -2.5 °F 8.1 °F 74% 30.06 in 9.0 mi NNW 20.7 mph 27.6 mph 0.00 in Snow Light Snow
4:25 AM 12.2 °F -4.3 °F 6.8 °F 79% 30.05 in 10.0 mi NNW 16.1 mph - 0.00 in   Scattered Clouds
4:53 AM 12.9 °F -2.2 °F 6.1 °F 74% 30.09 in 10.0 mi NNW 13.8 mph - 0.00 in   Overcast
5:12 AM 12.2 °F -1.8 °F 6.8 °F 79% 30.07 in 10.0 mi NW 11.5 mph - N/A   Overcast
5:43 AM 12.2 °F -3.1 °F 6.8 °F 79% 30.09 in 10.0 mi NW 13.8 mph - N/A   Overcast
5:53 AM 10.9 °F -4.1 °F 6.1 °F 81% 30.13 in 10.0 mi NW 12.7 mph - N/A   Overcast
6:18 AM 10.4 °F -5.4 °F 3.2 °F 73% 30.11 in 10.0 mi NW 13.8 mph - N/A   Scattered Clouds
6:53 AM 10.0 °F -4.5 °F 3.0 °F 73% 30.17 in 10.0 mi NW 11.5 mph - N/A   Clear
7:53 AM 12.0 °F -2.7 °F 5.0 °F 73% 30.21 in 10.0 mi NW 12.7 mph - N/A   Overcast
8:53 AM 14.0 °F -0.8 °F 6.1 °F 71% 30.23 in 10.0 mi NW 13.8 mph - N/A   Overcast
9:53 AM 16.0 °F 0.6 °F 8.1 °F 71% 30.25 in 3.0 mi NW 16.1 mph - 0.00 in Snow Light Snow
10:21 AM 15.8 °F 0.3 °F 8.6 °F 73% 30.23 in 2.5 mi WNW 16.1 mph - 0.00 in Snow Light Snow
10:53 AM 16.0 °F -0.4 °F 10.0 °F 77% 30.27 in 1.5 mi WNW 18.4 mph 23.0 mph 0.00 in Snow Light Snow
11:04 AM 15.8 °F -0.6 °F 8.6 °F 73% 30.24 in 3.0 mi West 18.4 mph - 0.00 in Snow Light Snow
11:19 AM 15.8 °F 0.9 °F 8.6 °F 73% 30.25 in 6.0 mi West 15.0 mph - 0.00 in Snow Light Snow
11:53 AM 15.1 °F -0.6 °F 9.0 °F 77% 30.29 in 3.0 mi WNW 16.1 mph - 0.00 in Snow Light Snow
12:53 PM 17.1 °F 2.5 °F 9.0 °F 71% 30.27 in 8.0 mi WNW 15.0 mph 25.3 mph 0.00 in Snow Light Snow
1:53 PM 18.0 °F 1.3 °F 9.0 °F 68% 30.27 in 8.0 mi WNW 20.7 mph - 0.00 in Snow Light Snow
2:27 PM 17.6 °F 0.9 °F 10.4 °F 73% 30.24 in 10.0 mi WNW 20.7 mph 27.6 mph 0.00 in Snow Light Snow
2:40 PM 17.6 °F 0.1 °F 8.6 °F 68% 30.24 in 9.0 mi NW 23.0 mph 29.9 mph 0.00 in   Overcast
2:53 PM 18.0 °F 2.2 °F 9.0 °F 68% 30.28 in 8.0 mi WNW 18.4 mph 31.1 mph 0.00 in Snow Light Snow
3:31 PM 17.6 °F 1.3 °F 8.6 °F 68% 30.26 in 7.0 mi WNW 19.6 mph 29.9 mph 0.00 in Snow Light Snow
3:49 PM 19.4 °F 4.5 °F 8.6 °F 63% 30.26 in 7.0 mi NW 17.3 mph 25.3 mph 0.00 in Snow Light Snow
3:53 PM 19.0 °F 3.2 °F 9.0 °F 65% 30.30 in 8.0 mi WNW 19.6 mph 25.3 mph 0.00 in Snow Light Snow
4:05 PM 19.4 °F 4.1 °F 8.6 °F 63% 30.26 in 9.0 mi WNW 18.4 mph 27.6 mph 0.00 in Snow Light Snow
4:38 PM 17.6 °F 0.9 °F 8.6 °F 68% 30.27 in 10.0 mi WNW 20.7 mph 26.5 mph 0.00 in   Overcast
4:53 PM 18.0 °F 3.1 °F 8.1 °F 65% 30.32 in 10.0 mi WNW 16.1 mph 25.3 mph 0.00 in   Overcast
5:53 PM 17.1 °F 1.0 °F 6.1 °F 62% 30.34 in 10.0 mi NW 18.4 mph - N/A   Overcast
6:53 PM 16.0 °F 0.1 °F 5.0 °F 62% 30.35 in 10.0 mi WNW 17.3 mph 24.2 mph N/A   Mostly Cloudy
7:08 PM 15.8 °F 1.4 °F 3.2 °F 58% 30.31 in 10.0 mi WNW 13.8 mph - N/A   Scattered Clouds
7:53 PM 14.0 °F 2.9 °F 3.9 °F 64% 30.37 in 10.0 mi WNW 8.1 mph - N/A   Clear
8:53 PM 12.0 °F 1.5 °F 3.9 °F 70% 30.37 in 10.0 mi West 6.9 mph - N/A   Clear
9:53 PM 10.9 °F 2.9 °F 3.0 °F 70% 30.37 in 10.0 mi West 4.6 mph - N/A   Clear
10:53 PM 10.9 °F 1.4 °F 3.0 °F 70% 30.36 in 10.0 mi West 5.8 mph - N/A   Clear
11:53 PM 12.0 °F 1.5 °F 3.0 °F 67% 30.35 in 10.0 mi West 6.9 mph - N/A   Clear